Weather History for Jonesboro, AR

Change the Weather History Date:

Friday, March 21, 2014

  Actual Average Record
Temperature  
Mean Temperature 53 °F 52 °F  
Max Temperature 69 °F 62 °F 87 °F (1907)
Min Temperature 36 °F 42 °F 19 °F (1906)
Degree Days  
Heating Degree Days 12 13  
Month to date heating degree days 463 346  
Since 1 July heating degree days 3728 3302  
Cooling Degree Days 0 0  
Month to date cooling degree days 0 0  
Year to date cooling degree days 0 0  
Growing Degree Days 2 (Base 50)    
Moisture  
Dew Point 37 °F    
Average Humidity 58    
Maximum Humidity 82    
Minimum Humidity 34    
Precipitation  
Precipitation 0.00 in 0.15 in 2.02 in (1968)
Month to date precipitation 3.33 2.96  
Year to date precipitation 8.04 10.11  
Snow  
Snow 0.00 in 0.10 in 4.00 in (2013)
Month to date snowfall 3.2 0.6  
Since 1 July snowfall 5.2 4.7  
Snow Depth 0.00 in    
Sea Level Pressure  
Sea Level Pressure 29.97 in    
Wind  
Wind Speed 5 mph (SSW)    
Max Wind Speed 18 mph    
Max Gust Speed 25 mph    
Visibility 10 miles    
Events      
T = Trace of Precipitation, MM = Missing Value Source: NWS Daily Summary

Daily Weather History Graph

Daily Weather History Graph

Search for Another Location

Airport:

Trip Planner

Search our weather history database for the weather conditions in past years. The results will help you decide how hot, cold, wet, or windy it might be!

Date:

Astronomy

Mar. 21, 2014 Rise Set
Actual Time 7:04 AM CDT 7:15 PM CDT
Civil Twilight 6:39 AM CDT 7:40 PM CDT
Nautical Twilight 6:09 AM CDT 8:10 PM CDT
Astronomical Twilight 5:39 AM CDT 8:40 PM CDT
Moon No Moon Rise 10:05 AM CDT (3/21)
Length of Visible Light 13h 01m
Length of Day
12h 10m
Waning Gibbous, 75% of the Moon is Illuminated
Mar 21
Waning Gibbous
Mar 23
Last Quarter
Mar 30
New
Apr 7
First Quarter
Apr 15
Full

Hourly Weather History & Observations

Time (CDT) Temp. Windchill Dew Point Humidity Pressure Visibility Wind Dir Wind Speed Gust Speed Precip Events Conditions
12:53 AM 39.0 °F - 34.0 °F 82% 30.06 in 10.0 mi Calm Calm - N/A   Clear
1:53 AM 39.0 °F 30.6 °F 33.1 °F 79% 30.05 in 10.0 mi SSW 15.0 mph 160.0 mph N/A   Squalls
2:53 AM 39.9 °F - 33.1 °F 77% 30.03 in 10.0 mi Calm Calm - N/A   Clear
3:53 AM 37.0 °F - 32.0 °F 82% 30.02 in 10.0 mi Calm Calm - N/A   Clear
4:53 AM 39.9 °F - 30.9 °F 70% 30.02 in 10.0 mi Calm Calm - N/A   Clear
5:53 AM 41.0 °F - 30.0 °F 65% 30.01 in 10.0 mi Calm Calm - N/A   Clear
6:53 AM 39.0 °F - 30.0 °F 70% 30.01 in 10.0 mi Calm Calm - N/A   Clear
7:53 AM 42.1 °F - 32.0 °F 67% 30.01 in 10.0 mi Calm Calm - N/A   Clear
8:53 AM 48.0 °F - 36.0 °F 63% 30.02 in 10.0 mi Calm Calm - N/A   Clear
9:53 AM 54.0 °F - 37.0 °F 53% 30.02 in 10.0 mi South 5.8 mph - N/A   Clear
10:53 AM 59.0 °F - 37.9 °F 46% 30.01 in 10.0 mi South 6.9 mph - N/A   Clear
11:53 AM 64.0 °F - 39.9 °F 41% 29.99 in 10.0 mi South 10.4 mph - N/A   Clear
12:53 PM 66.0 °F - 39.0 °F 37% 29.98 in 10.0 mi South 13.8 mph - N/A   Clear
1:53 PM 66.9 °F - 37.9 °F 34% 29.96 in 10.0 mi SSW 18.4 mph - N/A   Clear
2:53 PM 68.0 °F - 39.0 °F 35% 29.93 in 10.0 mi SSW 15.0 mph - N/A   Clear
3:53 PM 68.0 °F - 39.0 °F 35% 29.91 in 10.0 mi South 16.1 mph 24.2 mph N/A   Clear
4:53 PM 68.0 °F - 39.9 °F 36% 29.90 in 10.0 mi SSW 16.1 mph 25.3 mph N/A   Clear
5:53 PM 68.0 °F - 41.0 °F 37% 29.86 in 10.0 mi South 15.0 mph 21.9 mph N/A   Clear
6:53 PM 66.9 °F - 42.1 °F 40% 29.89 in 10.0 mi SW 10.4 mph - N/A   Clear
7:53 PM 62.1 °F - 43.0 °F 50% 29.90 in 10.0 mi SSW 6.9 mph - N/A   Clear
8:53 PM 59.0 °F - 42.1 °F 53% 29.91 in 10.0 mi SSW 3.5 mph - N/A   Clear
9:53 PM 54.0 °F - 42.1 °F 64% 29.91 in 10.0 mi Calm Calm - N/A   Clear
10:53 PM 54.0 °F - 42.1 °F 64% 29.93 in 10.0 mi Calm Calm - N/A   Clear
11:53 PM 55.0 °F - 43.0 °F 64% 29.93 in 10.0 mi SSW 5.8 mph - N/A   Partly Cloudy